Погода в Курченке

Россия / Астраханская область     46°14′00″N   47°32′06″E
темп.,
°C
ветер,
м/с
пор.,
м/с
влажн.,
%
обл.,
%
осадки,
мм/ч
давл.,
гПа
погр.,
м
26 сентября, вс
вс2601:00+14з6781100 0.1 1016408
04:00+14з7979100 1.0 1016598
07:00+13зюз798115 0.3 1017506
10:00+16з79645 0.3 1016706
13:00+18з9114823 0.0 10151518
16:00+18з81250100 0.0 10141283
19:00+15зюз91571100 0.3 10131133
22:00+16зюз10167397 0.4 10111115
27 сентября, пн
пн2701:00+16з111575100 0.8 1009895
04:00+15зсз914665 0.9 10101052
07:00+12зсз812680 0.0 1011712
10:00+14з911593 0.0 10121198
13:00+16з10124861 0.0 10111933
16:00+17зсз10124528 0.0 10121599
19:00+15зсз811527 0.0 10131181
22:00+15зсз695464 0.0 10141061
28 сентября, вт
вт2801:00+14зсз586741 0.0 1014645
04:00+12зсз58775 0.0 1015353
07:00+11сз46845 0.0 1016216
10:00+14сз34715 0.0 1017574
13:00+16сз345736 0.0 10171159
16:00+18ссз454798 0.1 10171303
19:00+17ссв4547100 0.0 1019667
22:00+15ссв5752100 0.0 1020618
29 сентября, ср
ср2901:00+14с135497 0.1 1020342
04:00+12с577264 0.1 1021305
07:00+11с6764100 0.0 1022442
10:00+11с5662100 0.0 1023652
13:00+13ссз555294 0.0 10231220
16:00+13с665385 0.0 10231370
19:00+12с665495 0.0 10241076
22:00+11с5553100 0.0 10251062
30 сентября, чт
чт3001:00+9ссв566888 0.0 1025715
04:00+8с57675 0.0 1026443
07:00+7с58635 0.0 1027325
10:00+10ссв67475 0.0 10281160
13:00+13ссв773559 0.0 10282028
16:00+13ссв663229 0.0 10282245
19:00+12с56355 0.0 1030841
22:00+10с58410 0.0 1031336